Showing default

RADUGA 21, 18631

Orbit data source: Space-Track

RADUGA 21, 18631 is a payload satellite owned by UNKS (CIS) in GEO that was launched on Thu, 10 Dec 1987 UTC via a PROTON-K/DM-2 launch vehicle from the Tyuratam Missile And Space Complex (TTMTR). Payload-class satellites include a variety of spacecraft equipped with specific instruments for various scientific and technological missions. These include communications satellites like Starlink; space stations such as the ISS; scientific satellites like the Hubble; Earth observation satellites from companies like Planet Labs, Umbra, and HawkEye 360; GPS; miniature CubeSats for education and research; and military/defense satellites.

Loading next visibility...
Identifier
18631, 1987-100A
Orbit
GEO
Country
Flag of CISCIS
Related business
Manufacturer
NPO PM
Mission
Non-operational Defense Communications
Bus & Motor
RADUGA, Unknown motor
Mass
1,965 kg wet, ~1,800 kg dry
Launch date (UTC)
1987-12-10 (38 years ago)
Launch vehicle
PROTON-K/DM-2
Launch site
Tyuratam Missile And Space Complex (TTMTR)
Object type
Payload
Rocket body
Debris
Shape & HBR
Cyl + 2 Pan, 4.8 m
Radar Cross Section
16.975 m², Large (>1 m²)

Expand to show TLE details & history
Last TLE update: 2 days ago

TLE from 2 days ago
0 RADUGA 21
1 18631U 87100A   25260.34767081  .00000101  00000-0  00000-0 0  9998
2 18631  11.6984 327.1774 0002107 230.8739 128.6237  1.00291535138347
Epoch: 2025-09-17T08:20Z
TLE epoch observation values (Epoch: 2025-09-17T08:20:38.757Z)
Latitude
-0.10353°
Longitude
-154.98447°
Altitude
35,786.194 km
Speed
3.075 km/s
True Right ascension
21h 46m 48s
True Declination
0° 06' 12"
Sunlit
Object was in daylight at epoch
Visualization orbit readout
Latitude
Unknown
Longitude
Unknown
Altitude
Unknown
Speed
Unknown
Apparent Right ascension
Unknown
Apparent Declination
Unknown
Sunlit
N/A
Visualization observer readout
Local Sidereal Time
16:25:04
Azimuth
Unknown
Elevation
Unknown
Doppler factor
Unknown
Orbital elements
Apogee altitude
35,790.948 km
Perigee altitude
35,773.182 km
Semi-major axis
42,160.202 km
Eccentricity
0.00021
Inclination
11.6984°
RAAN
327.1774°
Arg. of periapsis
230.8739°
True anomaly
128.64256°
Mean anomaly
128.6237°
Eccentric anomaly
128.63313°
Mean motion
0.25072 °/min
Orbital period
1,435.86 mins
BSTAR
0
Loading maneuver chart data...
Computing Atmospheric mass density...
Loading historical data...
Loading historical data...
Loading historical data...
Loading historical data...
Loading historical data...
Loading historical data...
Loading historical data...

Documentation

Showing up to 5 results
|